Tracking 27401 objects as of 4-Jun-2023
HD Live streaming from Space Station
objects crossing your sky now

GB 2

Track GB 2 now!
10-day predictions
GB 2 is classified as:


NORAD ID: 14144
Int'l Code: 1983-056D
Perigee: 401.1 km
Apogee: 1,665.1 km
Inclination: 63.3 °
Period: 105.7 minutes
Semi major axis: 7404 km
RCS: Unknown
Launch date: June 9, 1983
Source: United States (US)
Launch site: AIR FORCE WESTERN TEST RANGE (AFWTR)
Your satellite tracking list
Your tracking list is empty




NASA's NSSDC Master Catalog

Two Line Element Set (TLE):
1 14144U 83056D   23154.13403911  .00007274  00000-0  63892-3 0  9994
2 14144  63.3030  48.0664 0853594 112.5107 256.8517 13.62680311203673
Source of the keplerian elements: McCants